When you browse on this site, cookies collect data to enhance your experience and personalize the content and advertising you see.
Visit our Privacy Policy to learn more. By continuing to use the site, you agree to this use of cookies and data.
  • In Austria
  • List of Countries
  • For 7 days
  • Water Temperature
  • Weather Map
  • News
  • Weather Widgets
  • user-avatar
    Login

    Hourly Weather Kipungo

    Today, 22 January, Wednesday

    Time Temperature Precipitation Wind Pressure Humidity
    00:00 +20°C° 0 mm 2 mps 653 mmHg 92%
    01:00 +20°C° 0 mm 2 mps 653 mmHg 93%
    02:00 +21°C° 0.1 mm 1 mps 652 mmHg 93%
    03:00 +20°C° 0.1 mm 1 mps 652 mmHg 93%
    04:00 +20°C° 0.1 mm 1 mps 652 mmHg 93%
    05:00 +21°C° 0.1 mm 1 mps 652 mmHg 92%
    06:00 +21°C° 0.1 mm 1 mps 653 mmHg 91%
    07:00 +22°C° 0 mm 1 mps 654 mmHg 89%
    08:00 +24°C° 0 mm 1 mps 654 mmHg 80%
    09:00 +26°C° 0 mm 2 mps 654 mmHg 71%
    10:00 +28°C° 0 mm 3 mps 655 mmHg 61%
    11:00 +29°C° 0.1 mm 2 mps 654 mmHg 58%
    12:00 +30°C° 0.1 mm 2 mps 654 mmHg 54%
    13:00 +31°C° 0.1 mm 2 mps 654 mmHg 50%
    14:00 +30°C° 0.3 mm 2 mps 653 mmHg 54%
    15:00 +30°C° 0.3 mm 2 mps 652 mmHg 58%
    16:00 +29°C° 0.3 mm 2 mps 652 mmHg 62%
    17:00 +27°C° 0.2 mm 2 mps 652 mmHg 69%
    18:00 +25°C° 0.2 mm 2 mps 652 mmHg 77%
    19:00 +23°C° 0.2 mm 2 mps 652 mmHg 84%
    20:00 +23°C° 0.1 mm 2 mps 652 mmHg 87%
    21:00 +21°C° 0.1 mm 2 mps 652 mmHg 89%
    22:00 +21°C° 0.1 mm 3 mps 653 mmHg 91%
    23:00 +20°C° 0.5 mm 2 mps 653 mmHg 93%

    Tomorrow, 23 January, Thursday

    Time Temperature Precipitation Wind Pressure Humidity
    00:00 +20°C° 0.5 mm 2 mps 653 mmHg 94%
    01:00 +21°C° 0.5 mm 1 mps 652 mmHg 95%
    02:00 +20°C° 0.1 mm 1 mps 652 mmHg 95%
    03:00 +20°C° 0.1 mm 1 mps 652 mmHg 96%
    04:00 +20°C° 0.1 mm 1 mps 652 mmHg 96%
    05:00 +20°C° 0 mm 1 mps 652 mmHg 94%
    06:00 +20°C° 0 mm 1 mps 652 mmHg 93%
    07:00 +21°C° 0 mm 1 mps 653 mmHg 91%
    08:00 +23°C° 0 mm 1 mps 654 mmHg 79%
    09:00 +26°C° 0 mm 1 mps 654 mmHg 67%
    10:00 +29°C° 0 mm 1 mps 655 mmHg 55%
    11:00 +30°C° 0 mm 1 mps 655 mmHg 51%
    12:00 +31°C° 0 mm 1 mps 654 mmHg 48%
    13:00 +32°C° 0 mm 1 mps 654 mmHg 44%
    14:00 +30°C° 0.2 mm 2 mps 653 mmHg 50%
    15:00 +29°C° 0.2 mm 2 mps 652 mmHg 57%
    16:00 +28°C° 0.2 mm 2 mps 652 mmHg 63%
    17:00 +26°C° 0.4 mm 2 mps 652 mmHg 69%
    18:00 +25°C° 0.4 mm 2 mps 652 mmHg 76%
    19:00 +23°C° 0.4 mm 2 mps 651 mmHg 82%
    20:00 +23°C° 0.1 mm 2 mps 652 mmHg 85%
    21:00 +21°C° 0.1 mm 2 mps 652 mmHg 87%
    22:00 +20°C° 0.1 mm 2 mps 652 mmHg 90%
    23:00 +20°C° 0.1 mm 2 mps 652 mmHg 92%

    Day after tomorrow, 24 January, Friday

    Time Temperature Precipitation Wind Pressure Humidity
    00:00 +20°C° 0.1 mm 2 mps 652 mmHg 94%
    01:00 +20°C° 0.1 mm 2 mps 652 mmHg 96%
    02:00 +20°C° 0.2 mm 2 mps 652 mmHg 95%
    03:00 +20°C° 0.2 mm 2 mps 652 mmHg 94%
    04:00 +21°C° 0.2 mm 1 mps 652 mmHg 94%
    05:00 +21°C° 0.2 mm 1 mps 652 mmHg 93%
    06:00 +21°C° 0.2 mm 1 mps 653 mmHg 92%
    07:00 +19°C° 0.2 mm 0 mps 653 mmHg 91%
    08:00 +21°C° 0.5 mm 0 mps 654 mmHg 85%
    09:00 +25°C° 0.5 mm 1 mps 654 mmHg 79%
    10:00 +26°C° 0.5 mm 1 mps 655 mmHg 73%
    11:00 +28°C° 0.6 mm 1 mps 655 mmHg 66%
    12:00 +30°C° 0.6 mm 1 mps 654 mmHg 60%
    13:00 +31°C° 0.6 mm 1 mps 654 mmHg 53%
    14:00 +30°C° 1.1 mm 1 mps 654 mmHg 59%
    15:00 +29°C° 1.1 mm 2 mps 653 mmHg 64%
    16:00 +28°C° 1.1 mm 2 mps 652 mmHg 69%
    17:00 +26°C° 1.3 mm 3 mps 652 mmHg 75%
    18:00 +24°C° 1.3 mm 3 mps 652 mmHg 81%
    19:00 +22°C° 1.3 mm 3 mps 652 mmHg 87%
    20:00 +21°C° 0.9 mm 3 mps 653 mmHg 90%
    21:00 +21°C° 0.9 mm 2 mps 653 mmHg 92%
    22:00 +20°C° 0.9 mm 2 mps 653 mmHg 94%
    23:00 +20°C° 0.8 mm 2 mps 653 mmHg 95%

    25 January, Saturday

    Time Temperature Precipitation Wind Pressure Humidity
    00:00 +20°C° 0.8 mm 2 mps 653 mmHg 96%
    01:00 +19°C° 0.8 mm 2 mps 653 mmHg 97%
    02:00 +20°C° 0.6 mm 1 mps 653 mmHg 97%
    03:00 +20°C° 0.6 mm 1 mps 652 mmHg 97%
    04:00 +18°C° 0.6 mm 0 mps 652 mmHg 97%
    05:00 +18°C° 0.1 mm 0 mps 653 mmHg 96%
    06:00 +18°C° 0.1 mm 0 mps 653 mmHg 95%
    07:00 +19°C° 0.1 mm 0 mps 653 mmHg 94%
    08:00 +21°C° 0 mm 0 mps 654 mmHg 86%
    09:00 +25°C° 0 mm 1 mps 654 mmHg 78%
    10:00 +26°C° 0 mm 1 mps 655 mmHg 70%
    11:00 +28°C° 0 mm 1 mps 654 mmHg 65%
    12:00 +29°C° 0 mm 1 mps 654 mmHg 61%
    13:00 +30°C° 0 mm 1 mps 654 mmHg 56%
    14:00 +29°C° 1.1 mm 1 mps 653 mmHg 60%
    15:00 +28°C° 1.1 mm 2 mps 652 mmHg 64%
    16:00 +28°C° 1.1 mm 2 mps 652 mmHg 68%
    17:00 +26°C° 0.9 mm 2 mps 652 mmHg 74%
    18:00 +24°C° 0.9 mm 3 mps 652 mmHg 81%
    19:00 +21°C° 0.9 mm 3 mps 652 mmHg 88%
    20:00 +20°C° 0.3 mm 2 mps 652 mmHg 89%
    21:00 +20°C° 0.3 mm 2 mps 652 mmHg 90%
    22:00 +20°C° 0.3 mm 1 mps 653 mmHg 91%
    23:00 +20°C° 0.1 mm 1 mps 653 mmHg 92%

    26 January, Sunday

    Time Temperature Precipitation Wind Pressure Humidity
    00:00 +20°C° 0.1 mm 1 mps 653 mmHg 93%
    01:00 +20°C° 0.1 mm 1 mps 653 mmHg 94%
    02:00 +20°C° 0.1 mm 1 mps 653 mmHg 94%
    03:00 +20°C° 0.1 mm 1 mps 653 mmHg 94%
    04:00 +18°C° 0.1 mm 0 mps 653 mmHg 95%
    05:00 +18°C° 0 mm 0 mps 653 mmHg 94%
    06:00 +20°C° 0 mm 1 mps 653 mmHg 94%
    07:00 +21°C° 0 mm 1 mps 653 mmHg 93%
    08:00 +21°C° 0 mm 1 mps 654 mmHg 90%
    09:00 +22°C° 0 mm 1 mps 654 mmHg 86%
    10:00 +23°C° 0 mm 1 mps 654 mmHg 83%
    11:00 +24°C° 0 mm 1 mps 654 mmHg 80%
    12:00 +25°C° 0 mm 1 mps 653 mmHg 78%
    13:00 +25°C° 0 mm 1 mps 653 mmHg 75%
    14:00 +25°C° 0.4 mm 1 mps 652 mmHg 76%
    15:00 +25°C° 0.4 mm 1 mps 652 mmHg 78%
    16:00 +25°C° 0.4 mm 1 mps 651 mmHg 80%
    17:00 +24°C° 0.6 mm 1 mps 652 mmHg 81%
    18:00 +23°C° 0.6 mm 1 mps 652 mmHg 83%
    19:00 +22°C° 0.6 mm 1 mps 652 mmHg 85%
    20:00 +22°C° 0.2 mm 1 mps 653 mmHg 87%
    21:00 +21°C° 0.2 mm 1 mps 653 mmHg 90%
    22:00 +20°C° 0.2 mm 2 mps 653 mmHg 92%
    23:00 +20°C° 0.2 mm 2 mps 653 mmHg 93%

    27 January, Monday

    Time Temperature Precipitation Wind Pressure Humidity
    00:00 +21°C° 0.2 mm 1 mps 653 mmHg 94%
    01:00 +21°C° 0.2 mm 1 mps 653 mmHg 95%
    02:00 +21°C° 1.3 mm 1 mps 653 mmHg 95%
    03:00 +21°C° 1.3 mm 1 mps 653 mmHg 94%
    04:00 +18°C° 1.3 mm 0 mps 653 mmHg 94%
    05:00 +19°C° 0.1 mm 0 mps 653 mmHg 92%
    06:00 +19°C° 0.1 mm 0 mps 653 mmHg 91%
    07:00 +19°C° 0.1 mm 0 mps 653 mmHg 90%
    08:00 +21°C° 0 mm 0 mps 654 mmHg 79%
    09:00 +26°C° 0 mm 1 mps 655 mmHg 68%
    10:00 +28°C° 0 mm 1 mps 655 mmHg 58%
    11:00 +29°C° 0 mm 1 mps 655 mmHg 53%
    12:00 +30°C° 0 mm 1 mps 654 mmHg 49%
    13:00 +31°C° 0 mm 2 mps 654 mmHg 44%
    14:00 +31°C° 0 mm 2 mps 654 mmHg 45%
    15:00 +31°C° 0 mm 2 mps 653 mmHg 45%
    16:00 +31°C° 0 mm 1 mps 653 mmHg 46%
    17:00 +29°C° 0 mm 1 mps 653 mmHg 53%
    18:00 +26°C° 0 mm 1 mps 653 mmHg 61%
    19:00 +24°C° 0 mm 1 mps 653 mmHg 68%
    20:00 +23°C° 0.1 mm 2 mps 653 mmHg 75%
    21:00 +21°C° 0.1 mm 2 mps 653 mmHg 82%
    22:00 +20°C° 0.1 mm 2 mps 653 mmHg 88%
    23:00 +20°C° 0.3 mm 2 mps 653 mmHg 90%
    Show more